Location: Perth
(31.9535°S, 115.8570°E)
Time: 04:20:43
(UTC+08:00)

ISS - Pass Details

Date: 06 February 2016
Orbit: 402 x 404 km, 51.6° (Epoch: 24 June)

Event Time Altitude Azimuth Distance (km) Brightness Sun altitude
Exits shadow 04:43:53 18° 333° (NNW) 1,081 -1.7 -12.8°
Maximum altitude 04:46:08 55° 48° (NE) 494 -2.8 -12.4°
Drops below altitude 10° 04:49:23 10° 126° (SE) 1,480 1.0 -11.8°
Sets 04:51:31 0° 130° (SE) 2,350 2.3 -11.4°
